www.pogodaiklimat.ru

Погода и климат >> Архив погоды >> Россия >> Якутия >> Колымская


ПОГОДА в Колымской

  • Прогноз погоды в Колымской
  • Монитор погоды в Колымской

АРХИВ ПОГОДЫ в Колымской

Время (UTC), дата Ветер
(напр.,м/с)
 
Видим.   Явления Облачность Т
(С)
Тd
(С)
f
(%)
Тe
(С)
Тes
(С)
Комфортность P
(гПа)
Po
(гПа)
Тmin
(С)
Tmax
(С)
R
(мм)
R24
(мм)
S
(см)
00 12.02 ЮЗ 2 20 км ясно -40.3 -45.3 59 -49 -49 опасность
обморожения
1015.9 1014.2 -40.3
03 12.02 ЮЗ 2 20 км ясно -37.9 -42.3 63 -47 -46 опасность
обморожения
1015.7 1014.0
06 12.02 ЮЗ 3 20 км ясно -38.8 -43.9 58 -50 -50 опасность
обморожения
1016.9 1015.2
09 12.02 ЮЗ 3 20 км ясно -39.6 -44.4 60 -51 -51 опасность
обморожения
1017.9 1016.2 -37.9
12 12.02 ЮЗ 3 20 км ясно -40.2 -44.8 61 -52 -52 опасность
обморожения
1018.9 1017.2
15 12.02 Ю 3 20 км ясно -39.9 -44.8 59 -52 -52 опасность
обморожения
1019.0 1017.3
18 12.02 ЮЗ 3 20 км ясно -38.4 -43.5 58 -50 -50 опасность
обморожения
1020.2 1018.5
21 12.02 ЮЗ 2 20 км ясно -38.2 -42.3 65 -47 -47 опасность
обморожения
1020.9 1019.2 -40.7 48
00 13.02 ЮЗ 3 20 км ясно -38.1 -42.3 64 -49 -49 опасность
обморожения
1021.5 1019.8
03 13.02 ЮЗ 2 20 км ясно -35.8 -40.1 64 -44 -44 опасность
обморожения
1022.3 1020.6
06 13.02 ЮЗ 3 20 км ясно -36.8 -41.1 64 -48 -48 опасность
обморожения
1023.3 1021.6
09 13.02 ЮЗ 3 20 км ясно -37.8 -41.9 65 -49 -49 опасность
обморожения
1025.0 1023.3 -35.6
12 13.02 Ю 4 20 км ясно -38.2 -42.3 65 -51 -51 опасность
обморожения
1026.0 1024.3
15 13.02 В 2 20 км ясно -42.5 -47.0 61 -52 -52 опасность
обморожения
1025.7 1023.9
18 13.02 В 3 20 км ясно -43.4 -48.3 58 -56 -56 опасность
обморожения
1025.2 1023.4
21 13.02 В 3 20 км ясно -42.9 -47.6 60 -55 -55 опасность
обморожения
1024.4 1022.6 -44.4 48
00 14.02 В 2 20 км ясно -42.3 -47.0 60 -52 -51 опасность
обморожения
1023.1 1021.3
03 14.02 СВ 2 20 км ясно -39.4 -44.4 59 -48 -48 опасность
обморожения
1020.8 1019.1
06 14.02 В 2 20 км ясно -41.0 -45.6 61 -50 -50 опасность
обморожения
1019.0 1017.3
09 14.02 штиль 0 20 км ясно -43.3 -49.1 53 -43 -43 опасность
обморожения
1017.9 1016.2 -41.0
12 14.02 В 3 20 км ясно -43.1 -47.6 61 -55 -55 опасность
обморожения
1016.7 1015.0
15 14.02 штиль 0 20 км ясно -42.2 -47.0 59 -42 -42 опасность
обморожения
1014.9 1013.2
18 14.02 С 1 20 км ясно -44.1 -49.8 53 -50 -50 опасность
обморожения
1014.0 1012.2
21 14.02 З 1 20 км ясно -43.1 -47.6 61 -49 -49 опасность
обморожения
1011.5 1009.8 -44.3 48
00 15.02 З 2 20 км 6/0
[Cs]
-43.3 -49.1 53 -53 -53 опасность
обморожения
1009.9 1008.2
03 15.02 СЗ 2 20 км 8/0
[Cs]
-40.2 -44.8 61 -49 -49 опасность
обморожения
1007.8 1006.1
06 15.02 З 2 20 км 8/0
[Cs]
-39.0 -43.9 60 -48 -48 опасность
обморожения
1007.1 1005.4
09 15.02 СЗ 3 20 км 10/0
[Cs]
-38.1 -42.3 64 -49 -49 опасность
обморожения
1006.1 1004.4 -38.1
12 15.02 З 3 20 км 10/0
[Cs]
-36.6 -40.8 65 -48 -48 опасность
обморожения
1005.7 1004.0
15 15.02 З 2 20 км 8/0
[Cs]
-37.3 -41.9 62 -46 -46 опасность
обморожения
1005.0 1003.3
18 15.02 З 3 20 км 6/0
[Cs]
-38.0 -42.3 64 -49 -49 опасность
обморожения
1004.1 1002.4
21 15.02 З 3 20 км 8/0
[As op Ci fib]
-37.1 -41.5 63 -48 -48 опасность
обморожения
1003.4 1001.7 -38.6 48
00 16.02 З 3 20 км 9/0
[Ac trans]
-35.5 -39.8 65 -46 -46 опасность
обморожения
1002.9 1001.2
03 16.02 СЗ 3 10 км слаб. снег 9/0
[As op]
-33.7 -37.2 71 -44 -44 опасность
обморожения
1002.0 1000.4
06 16.02 СЗ 3 10 км слаб. снег 10/0
[As op]
-32.2 -35.9 69 -42 -42 опасность
обморожения
1001.2 999.6
09 16.02 СЗ 4 10 км слаб. снег 10/0
[As op]
-30.6 -33.6 75 -42 -42 опасность
обморожения
1000.2 998.6 -30.6 0.0
12 16.02 СЗ 6 10 км слаб. снег {метель} 10/0
[As op]
-30.0 -33.0 75 -44 -44 опасность
обморожения
999.9 998.3
15 16.02 СЗ 6 4000 м слаб. снег {метель} 10/0
[As op]
-29.5 -32.6 74 -43 -43 опасность
обморожения
998.9 997.3
18 16.02 СЗ 5 4000 м слаб. снег {метель} 10/0
[As op]
-30.0 -33.0 75 -43 -43 опасность
обморожения
998.6 997.0
21 16.02 СЗ 6 4000 м слаб. снег {метель} 10/0
[As op]
-28.2 -31.3 75 -41 -41 опасность
обморожения
998.4 996.8 -30.7 0.8 49
00 17.02 З 6
{10}
20 км позёмок {снег} 10/0
[As op]
-28.3 -31.3 75 -41 -41 опасность
обморожения
999.1 997.5
03 17.02 З 7-10
{10}
4000 м слаб. снег {метель} 10/0
[As op]
-27.3 -29.8 79 -41 -41 опасность
обморожения
999.7 998.1
06 17.02 З 6
{10}
10 км слаб. снег {метель} 10/0
[As op]
-27.4 -29.8 80 -40 -40 опасность
обморожения
1001.0 999.4
09 17.02 З 5 10 км слаб. снег {метель} 10/0
[As op]
-27.6 -30.7 75 -40 -40 опасность
обморожения
1002.4 1000.8 -27.2 1
12 17.02 З 4 10 км слаб. снег {метель} 10/0
[As op]
-28.2 -31.3 75 -39 -39 опасность
обморожения
1003.8 1002.2
15 17.02 З 5 4000 м слаб. снег {метель} 10/0
[As op]
-27.6 -30.0 80 -40 -40 опасность
обморожения
1004.7 1003.1
18 17.02 З 6 4000 м слаб. снег {метель} 10/0
[As op]
-28.3 -31.3 75 -41 -41 опасность
обморожения
1005.7 1004.1
21 17.02 ЮЗ 3 20 км {снег, метель} 6/0
[As op]
-31.4 -34.3 75 -41 -41 опасность
обморожения
1007.0 1005.4 -31.5 2 50
00 18.02 ЮЗ 3 20 км {снег, метель} 10/0
[As op]
-29.6 -32.6 75 -39 -39 опасность
обморожения
1008.8 1007.2 -32.1
03 18.02 З 4 10 км слаб. снег 10/0
[As op]
-27.7 -30.1 80 -38 -38 опасность
обморожения
1009.6 1008.0
06 18.02 З 3 20 км {снег} 8/0
[As op]
-29.0 -32.1 74 -38 -38 опасность
обморожения
1011.0 1009.4
09 18.02 З 3 20 км 4/0
[As op]
-31.8 -35.5 70 -42 -42 опасность
обморожения
1012.9 1011.2 -27.6 0.0
12 18.02 З 2 20 км ясно -33.1 -36.7 70 -41 -41 опасность
обморожения
1013.9 1012.2
15 18.02 З 3 20 км ясно -34.1 -37.8 69 -45 -45 опасность
обморожения
1014.9 1013.2
18 18.02 ЮЗ 3 20 км ясно -35.8 -40.1 64 -47 -47 опасность
обморожения
1015.6 1013.9

 

Местоположение метеостанции Колымская (Якутия, Россия): широта 68.72 долгота 158.60 высота над уровнем моря 12 м.

В архиве по умолчанию представлена погода в Колымской за последнюю неделю. Архивные данные за месяц целиком и за предыдущие месяцы, начиная с января 2011 года, Вы можете получить, выбрав интересующий диапазон дат из раскрывающегося списка и нажав кнопку "Ввод!".


*Определитесь, кто Вы:
робот инопланетянин человек

Внимание! Время в таблицах - всемирное. Для получения местного времени необходимо прибавить поправку, которая равна 11 ч.

Смотрите также архив погоды в соседних городах и на ближайших метеорологических станциях:

Погода в Черском (Якутия, Россия) (109 км)
Погода в Константиновской (Чукотка, Россия) (120 км)
Погода в Анюйске (Чукотка, Россия) (125 км)
Погода в Андрюшкино (Якутия, Россия) (171 км)
Погода в Бухте Амбарчик (Чукотка, Россия) (177 км)
Погода в Островном (Чукотка, Россия) (235 км)
Погода в Среднеколымске (Якутия, Россия) (248 км)
Погода в Раучуе (Чукотка, Россия) (325 км)
Погода в Билибино (Чукотка, Россия) (328 км)
Погода в Баимке (Чукотка, Россия) (340 км)

Пояснения к столбцам:

Ветер - указаны скорость ветра в м/с - средняя за 10 мин, порывы в срок и между сроками (в фигурных скобках) и направление, откуда дует ветер: С - северный, СВ - северо-восточный, В - восточный, ЮВ - юго-восточный, Ю - южный, ЮЗ - юго-западный, З - западный, СЗ - северо-западный.
Видимость - горизонтальная дальность видимости в метрах или километрах. При видимости от 1 до 10 км при отсутствии осадков обычно наблюдается дымка, при ухудшении видимости до 1 км и менее - туман. В сухую погоду видимость может ухудшаться дымом, пылью или мглою.
Явления - указаны атмосферные явления, наблюдавшиеся в срок или в последний час перед сроком; фигурными скобками обозначены явления, наблюдавшиеся между сроками (за 1-3 часа до срока); квадратными скобками обозначены град или гололедные отложения с указанием их диаметра в мм.
Облачность - указаны через наклонную черту общая и нижняя облачность в баллах и высота нижней границы облаков в метрах; квадратными скобками обозначены формы облаков: Ci - перистые, Cs - перисто-слоистые, Cc - перисто-кучевые, Ac - высококучевые, As - высокослоистые, Sc - слоисто-кучевые, Ns - слоисто-дождевые, Cu - кучевые, Cb - кучево-дождевые. Подробнее классификацию облаков см. в Атласе облаков (PDF).
T - Температура воздуха - температура, измеренная на высоте 2 м над землей.
Td - Температура точки росы - температура, при понижении до которой содержащийся в воздухе водяной пар достигнет насыщения.
f - Относительная влажность воздуха - влажноcть воздуха, измеренная на высоте 2 м над землей.
Te - Эффективная температура - температура, которую ощущает одетый по сезону человек в тени. Характеристика душности погоды. При расчете учитывается влияние влажности воздуха и скорости ветра на теплоощущения человека.
Tes - Эффективная температура на солнце - температура, которую ощущает человек, с поправкой на солнечный нагрев. Характеристика знойности погоды. Зависит от высоты солнца над горизонтом, облачности и скорости ветра. Ночью, в пасмурную погоду, а также при ветре 12 м/с и более поправка равна нулю.
P - Атмосферное давление - приведенное к уровню моря атмосферное давление.
Po - Атмосферное давление - измеренное на уровне метеостанции атмосферное давление.
Tmin - Минимальная температура - минимум температуры воздуха на высоте 2 м над землей.
Tmax - Максимальная температура - максимум температуры воздуха на высоте 2 м над землей.
R - Количество осадков - Количество выпавших осадков за период времени, мм. При наведении курсора мыши на число - период времени, за который выпало указанное количество осадков.
R24 - Количество осадков - Количество выпавших осадков за 24 часа, мм.
S - Снежный покров - Высота снежного покрова, см. При наведении курсора мыши на число - состояние снежного покрова и степень покрытия местности в баллах.